Terminal Aerodrome Forecast
Issued by NWS Los Angeles, CA

Home | Current Version | Previous Version | Text Only | Print | Product List | Glossary On
Versions: 1 2 3 4 5 6 7 8 9 10 11 12 13 14 15 16 17 18 19 20 21 22 23 24 25 26
000
FTUS46 KLOX 241051 AAB
TAFSMX
TAF AMD
KSMX 241051Z 2411/2506 VRB03KT 5SM BR VV002
     FM241600 VRB03KT 2SM BR VCFG OVC004
     FM241800 30006KT 6SM BR SCT007
     FM242000 30010KT P6SM SCT250
     FM250300 VRB03KT 6SM BR OVC007=

USA.gov is the U.S. government's official web portal to all federal, state and local government web resources and services.